Location: New Plymouth
(39.0670°S, 174.0830°E)
Time: 10:53:57
(UTC+12:00)

NOAA 19 - Pass Details

Date: 28 August 2019
Orbit: 840 x 862 km, 99.2° (Epoch: 15 September)

Event Time Altitude Azimuth Distance (km) Brightness Sun altitude
Rises 05:15:07 0° 5° (N) 3,385 8.4 -19.9°
Reaches altitude 10° 05:17:30 10° 1° (N) 2,459 7.6 -19.4°
Maximum altitude 05:22:52 58° 282° (WNW) 988 5.2 -18.3°
Drops below altitude 10° 05:28:20 10° 202° (SSW) 2,500 7.4 -17.3°
Sets 05:30:46 0° 198° (SSW) 3,445 8.2 -16.8°
